www.pogodaiklimat.ru
Время
и дата
14:53 15.07
15:53 15.07
16:53 15.07
17:53 15.07
18:53 15.07
19:53 15.07
20:53 15.07
21:53 15.07
22:53 15.07
23:53 15.07
00:53 16.07
01:53 16.07
02:53 16.07
03:53 16.07
04:53 16.07
05:53 16.07
06:37 16.07
06:48 16.07
06:53 16.07
07:03 16.07
07:13 16.07
07:53 16.07
08:53 16.07
09:05 16.07
09:36 16.07
09:53 16.07
10:46 16.07
10:53 16.07
11:53 16.07
12:53 16.07
13:53 16.07
14:53 16.07
15:53 16.07
16:53 16.07
17:53 16.07
18:53 16.07
19:53 16.07
20:53 16.07
21:53 16.07
22:53 16.07
23:53 16.07
00:53 17.07
01:53 17.07
02:53 17.07
03:53 17.07
04:53 17.07
05:53 17.07
06:53 17.07
Ветер
(напр.,м/с)
Видим. Явления Облачность Т
(С)
Тd
(С)
f
(%)
Тe
(С)
Тes
(С)
Комфортность P
(гПа)
Po
(гПа)
Тmin
(С)
Tmax
(С)
R
(мм)
R24
(мм)
S
(см)
ЮВ 5 16 км 8/2 900 m
[Ac Ci Cb]
+30.6 +24.4 70 +43 +48 опасность
перегрева
1017.3 1016.1
В 4 16 км 8/2 900 m
[Ac Ci Cb]
+31.1 +24.4 68 +44 +49 опасность
перегрева
1016.3 1015.1
В 6 16 км 8/2 900 m
[Ac Ci Cb]
+30.6 +24.4 70 +43 +45 опасность
перегрева
1016.0 1014.7
В 5 16 км 8/2 720 m
[Ci]
+30.6 +24.4 70 +43 +45 опасность
перегрева
1016.2 1015.1
ЮВ 5 16 км 8/5 780 m
[Ci Cb]
+29.4 +24.4 75 +42 +42 опасность
перегрева
1016.7 1015.4 +29.4 +31.1
В 5 16 км 5/5 780 m
[Ci Cb]
+28.9 +25.0 80 +42 +42 опасность
перегрева
1017.5 1016.4
В 3 16 км 5/5 780 m
[Ci]
+28.9 +25.0 80 +42 +42 опасность
перегрева
1018.0 1016.7
В 3 16 км 2/2 690 м +28.9 +24.4 77 +41 +41 опасность
перегрева
1018.0 1016.7
ЮВ 2 16 км 2/2 690 м +28.9 +25.0 80 +42 +42 опасность
перегрева
1018.3 1017.1
В 3 16 км 2/2 690 m
[Ci]
+28.9 +25.0 80 +42 +42 опасность
перегрева
1017.7 1016.4
В 3 16 км 5/5 600 м +28.3 +25.0 82 +41 +41 опасность
перегрева
1017.2 1016.1 +28.3 +29.4
ЮВ 4 16 км 2/2 720 м +28.9 +24.4 77 +41 +41 опасность
перегрева
1016.7 1015.4
ЮВ 4 16 км ясно +28.3 +25.0 82 +41 +41 опасность
перегрева
1016.3 1015.1
ЮВ 3 16 км ясно +28.3 +24.4 79 +40 +40 очень
душно
1016.2 1015.1
ЮВ 4 16 км 2/2 630 м +28.3 +25.0 82 +41 +41 опасность
перегрева
1016.7 1015.4
В 3 16 км 2/2 600 m
[Ci Cb]
+28.3 +24.4 79 +40 +40 очень
душно
1017.1 1015.7
ЮВ 3 14 км гроза с дождем 8/8 630 m
[Ac Cb]
+28.3 +25.6 85 +42 +42 очень
душно
1016.4
ЮВ 7
{13}
2 км гроза с сильным дождем, дымка 10/10 600 m
[Cb]
+26.0 +24.0 89 +36 +36 очень
душно
1017.1
В 5
{13}
3 км гроза с сильным дождем, дымка 10/10 480 m
[Cb]
+25.6 +23.3 87 +34 +34 очень
душно
1018.1 1017.1 +25.6 +28.9 7.4 8.6
СЗ 2 10 км гроза со слабым дождем 8/8 480 m
[Ac Ci Cb]
+25.6 +24.4 93 +36 +36 очень
душно
1016.7
штиль 0 16 км слабый дождь 8/8 600 m
[Ac Ci Cb Ns]
+26.7 +25.0 90
ЮВ 2 16 км 8/5 600 m
[Ac Cb]
+29.4 +25.0 77 +42 +43 опасность
перегрева
1018.2 1017.1
В 4 16 км 8/8 750 m
[Ac Ci Cb]
+30.6 +23.9 67 +42 +43 очень
душно
1018.6 1017.4
ЮВ 3 16 км гроза 8/8 810 m
[Ac Ci Cb]
+30.6 +23.9 67 +42 +44 очень
душно
1017.8
нст 2 16 км 8/8 810 m
[Ac Ci Cb]
+30.0 +25.0 75 +43 +45 очень
душно
1017.8
штиль 0 16 км 8/8 840 m
[Ac Ci Cb]
+29.4 +24.4 75 +42 +44 очень
душно
1018.8 1017.8 9.4
В 5 16 км 8/5 900 m
[Ci Cb]
+30.6 +23.9 67 +42 +46 опасность
перегрева
1017.4
В 4 16 км 8/5 900 m
[Ci Cb]
+30.6 +23.9 67 +42 +47 опасность
перегрева
1018.8 1017.4
ЮВ 3
{8}
16 км 8/5 1050 m
[Ac Ci Cb]
+31.7 +23.9 63 +43 +49 опасность
перегрева
1018.4 1017.1
В 5
{9}
16 км 8/5 1050 m
[Ci]
+31.7 +23.3 61 +42 +47 опасность
перегрева
1018.1 1017.1 +25.6 +32.8 9.4
В 5
{10}
16 км 8/5 1110 m
[Ci]
+32.2 +23.3 59 +43 +48 опасность
перегрева
1017.4 1016.1
В 6 16 км 8/5 1110 m
[Ci]
+31.7 +22.8 59 +41 +45 опасность
перегрева
1016.9 1015.7
В 5 16 км 8/5 1200 m
[Ci Cb]
+32.2 +22.8 58 +42 +46 опасность
перегрева
1016.4 1015.4
ЮВ 4 16 км 8/5 1080 m
[Ci Cb]
+31.1 +23.3 63 +42 +44 опасность
перегрева
1016.4 1015.4
ЮВ 5 16 км 8/5 870 m
[Ci Cb]
+30.6 +23.9 67 +42 +43 опасность
перегрева
1017.2 1016.1
В 5 16 км 8/5 810 m
[Ci Cb]
+30.0 +23.9 70 +41 +42 опасность
перегрева
1018.1 1017.1 +30.0 +32.8
В 5 16 км 8/5 810 m
[Ci Cb]
+29.4 +23.9 72 +40 +40 очень
душно
1018.4 1017.1
В 5 16 км 8/2 810 m
[Ci]
+29.4 +23.9 72 +40 +40 очень
душно
1018.4 1017.1
В 5 16 км 8/2 750 m
[Ci]
+29.4 +23.3 70 +40 +40 очень
душно
1018.3 1017.1
В 4 16 км 8/2 690 m
[Ci]
+28.9 +23.3 72 +39 +39 очень
душно
1018.3 1017.1
В 4 16 км 8/0 7500 m
[Ci]
+28.9 +23.3 72 +39 +39 очень
душно
1017.5 1016.4
В 4 16 км 8/2 600 m
[Ci]
+28.9 +23.3 72 +39 +39 очень
душно
1017.0 1015.7 +28.3 +30.0
В 3 16 км 8/2 720 m
[Ci]
+28.3 +23.3 74 +38 +38 очень
душно
1016.4 1015.4
ЮВ 4 16 км 8/0 7500 m
[Ci]
+28.3 +23.3 74 +38 +38 очень
душно
1016.2 1015.1
В 3 16 км ясно +28.3 +23.3 74 +38 +38 очень
душно
1016.3 1015.1
В 2 16 км 8/2 720 m
[Ci]
+27.8 +23.9 79 +38 +38 очень
душно
1016.8 1015.7
В 2 16 км 8/5 720 m
[Ci Cb]
+28.3 +23.9 77 +39 +39 очень
душно
1017.4 1016.4
СВ 2 16 км 8/5 690 m
[Ci Cb]
+28.3 +23.9 77 +39 +39 очень
душно
1018.0 1016.7 +27.8 +28.9 9.4
Местоположение метеостанции Miami International Airport: широта 25.7906 долгота -80.3164 высота над уровнем моря 9 м.
В архиве по умолчанию представлена погода в Майами за последние 1-2 суток. Обновление информации о фактической погоде в базе происходит ежечасно! Архивные данные за месяц целиком и за предыдущие месяцы Вы можете получить, выбрав интересующий диапазон дат из раскрывающегося списка и нажав кнопку "Ввод!".
Внимание! Архив погоды МЕТАР в базе сайта по станциям, не включенным в климатический монитор, хранится не более 60 дней. Нет смысла пытаться выбрать более раннюю дату.
*Определитесь, кто Вы:
Внимание! Время в таблицах - местное (без учета летнего времени). Для получения всемирного времени необходимо вычесть поправку, которая равна -5 ч.
Смотрите также архив погоды в соседних городах и на ближайших метеорологических станциях:
Партнеры нашего сайта:      
Пояснения к столбцам:
  • Ветер - указаны скорость ветра в м/с - средняя за 10 мин, порывы в срок и между сроками (в фигурных скобках) и направление, откуда дует ветер: С - северный,
  • СВ - северо-восточный, В - восточный, ЮВ - юго-восточный, Ю - южный, ЮЗ - юго-западный, З - западный, СЗ - северо-западный.
  • Видимость - горизонтальная дальность видимости в метрах или километрах. При видимости от 1 до 10 км при отсутствии осадков обычно наблюдается дымка, при ухудшении видимости до 1 км и менее - туман. В сухую погоду видимость может ухудшаться дымом, пылью или мглою.
  • Явления - указаны атмосферные явления, наблюдавшиеся в срок или в последний час перед сроком; фигурными скобками обозначены явления, наблюдавшиеся между сроками (за 1-3 часа до срока); квадратными скобками обозначены град или гололедные отложения с указанием их диаметра в мм.
  • Облачность - указаны через наклонную черту общая и нижняя облачность в баллах и высота нижней границы облаков в метрах; квадратными скобками обозначены формы облаков: Ci - перистые, Cs - перисто-слоистые, Cc - перисто-кучевые, Ac - высококучевые, As - высокослоистые, Sc - слоисто-кучевые, Ns - слоисто-дождевые, Cu - кучевые, Cb - кучево-дождевые. Подробнее классификацию облаков см. в Атласе облаков (PDF).
  • T - Температура воздуха - температура, измеренная на высоте 2 м над землей.
  • Td - Температура точки росы - температура, при понижении до которой содержащийся в воздухе водяной пар достигнет насыщения.
  • f - Относительная влажность воздуха - влажноcть воздуха, измеренная на высоте 2 м над землей.
  • Te - Эффективная температура - температура, которую ощущает одетый по сезону человек в тени. Характеристика душности погоды. При расчете учитывается влияние влажности воздуха и скорости ветра на теплоощущения человека.
  • Tes - Эффективная температура на солнце - температура, которую ощущает человек, с поправкой на солнечный нагрев. Характеристика знойности погоды. Зависит от высоты солнца над горизонтом, облачности и скорости ветра. Ночью, в пасмурную погоду, а также при ветре 12 м/с и более поправка равна нулю.
  • P - Атмосферное давление - приведенное к уровню моря атмосферное давление.
  • Po - Атмосферное давление - измеренное на уровне метеостанции атмосферное давление.
  • Tmin - Минимальная температура - минимум температуры воздуха на высоте 2 м над землей.
  • Tmax - Максимальная температура - максимум температуры воздуха на высоте 2 м над землей.
  • R - Количество осадков - Количество выпавших осадков за период времени, мм. При наведении курсора мыши на число - период времени, за который выпало указанное количество осадков.
  • R24 - Количество осадков - Количество выпавших осадков за 24 часа, мм.
  • S - Снежный покров - Высота снежного покрова, см. При наведении курсора мыши на число - состояние снежного покрова и степень покрытия местности в баллах.